Location: Owl River
(54.8872°N, 111.8867°W)
Time: 16:05:27
(UTC+00:00)

BlueWalker 3 - Pass Details

Date: 27 April 2024
Orbit: 482 x 494 km, 53.2° (Epoch: 19 May)

Event Time Altitude Azimuth Distance (km) Brightness Sun altitude
Rises 06:01:26 0° 282° (WNW) 2,584 6.0 -18.9°
Reaches altitude 10° 06:03:48 10° 271° (W) 1,700 4.9 -19.0°
Enters shadow 06:06:31 27° 228° (SW) 983 3.2 -19.1°
